Location: Newark
(17.9939°S, 31.0481°E)
Time: 01:03:41
(UTC+00:00)

Courier 1B - Pass Details

Date: 15 November 2019
Orbit: 963 x 1209 km, 28.3° (Epoch: 05 December)

Event Time Altitude Azimuth Distance (km) Brightness Sun altitude
Rises 19:28:30 0° 251° (WSW) 4,088 11.4 -41.1°
Reaches altitude 10° 19:31:35 10° 244° (WSW) 3,141 10.7 -41.6°
Enters shadow 19:37:41 37° 196° (SSW) 1,786 9.0 -42.6°
